Regional Weather Roundup
Issued by NWS

Home | Current Version | Previous Version | Text Only | Print | Product List | Glossary On
Versions: 1 2 3 4 5 6 7 8 9 10 11 12 13 14 15 16 17 18 19 20 21 22 23 24 25 26 27 28 29 30 31 32 33 34 35 36 37 38 39 40 41 42 43 44 45 46 47 48 49 50
000
ASUS45 KBOI 211410
RWRID
WEATHER ROUNDUP FOR IDAHO
NATIONAL WEATHER SERVICE BOISE ID
800 AM MDT SUN SEP 21 2014

NOTE: "FAIR" INDICATES FEW OR NO CLOUDS BELOW 12000 FEET
WITH NO SIGNIFICANT WEATHER AND/OR OBSTRUCTIONS TO VISIBILITY

IDZ012-014-211500-
SOUTHWEST IDAHO


CITY           SKY/WX    TMP DP  RH WIND       PRES   REMARKS
BOISE          MOCLDY    64  42  44 S9        30.02R
CALDWELL       MOCLDY    54  39  58 NE6       30.03S
MOUNTAIN HOME  PTCLDY    55  42  62 E6        30.04R
$$

IDZ016-017-211500-
SOUTHCENTRAL IDAHO


CITY           SKY/WX    TMP DP  RH WIND       PRES   REMARKS
BURLEY         CLOUDY    52  47  83 CALM      30.10R
JEROME         MOCLDY    58  43  57 E9        30.11R
TWIN FALLS     CLOUDY    60  42  51 S5        30.11R
$$

IDZ019>023-211500-
SOUTHEAST IDAHO


CITY           SKY/WX    TMP DP  RH WIND       PRES   REMARKS
IDAHO FALLS    MOCLDY    53  44  71 N8        30.17R
POCATELLO      CLEAR     50  45  83 CALM      30.14R
REXBURG        MOCLDY    49  40  71 NE3       30.19R
$$

IDZ006-010-011-018-031-032-211500-
CENTRAL IDAHO MOUNTAINS


CITY           SKY/WX    TMP DP  RH WIND       PRES   REMARKS
MCCALL         PTCLDY    44  38  79 CALM      30.15R
HAILEY         PTCLDY    55  39  54 NW12      30.19R
STANLEY          N/A     37  33  85 SE3       30.30R
SALMON         CLEAR     43  39  87 CALM      30.20R
CHALLIS        CLEAR     46  39  76 CALM      30.23R
$$

IDZ002-004-006-007-026-211500-
NORTHERN IDAHO


CITY           SKY/WX    TMP DP  RH WIND       PRES   REMARKS
LEWISTON       CLEAR     57  40  52 CALM      29.99R
LOWELL           N/A     50  48  93 N5        30.07R
COEUR D`ALENE  CLEAR     59  45  58 NE16      30.04S
MULLAN PASS    CLEAR     54  36  50 SE14G24   30.22S
$$


USA.gov is the U.S. government's official web portal to all federal, state and local government web resources and services.